Vertical_Velocity
-0 0 0 -0 -1 1 2 1 0 0 0 0 -0 0 -1 -1 0 -1 -0 -0 -2 -0
-0 -0 1 1 1 2 1 -0 0 1 0 -0 -0 0 0 -1 1 -0 -1 -3 -1 -0
0 -0 0 1 2 2 -1 0 -0 -1 -1 -0 0 0 1 -0 -0 1 -2 -2 3 -2
-0 0 0 0 2 1 1 0 -0 -0 -0 0 -2 -1 -1 -1 1 1 1 -1 -1 -0
0 0 0 1 1 1 1 1 -0 -2 -1 -1 -1 -2 -0 2 -0 -1 1 1 0 1
-0 0 2 1 1 0 -1 -0 -1 -1 -0 -0 -1 -1 -2 0 1 1 -2 -2 -2 -3
1 1 1 1 1 -0 -1 0 -0 -0 0 -1 -0 -0 -0 -0 2 -1 -1 -1 -4 -4
1 2 1 0 -1 -0 0 -0 0 -2 -1 1 0 -1 0 -1 3 -0 -0 -3 -2 -2
1 0 -1 -0 0 -0 -0 -1 -1 1 -1 -3 -1 -1 -1 -5 0 -2 -3 -1 1 -1
-0 -1 0 1 0 -1 -1 -1 -0 -1 -0 -2 1 -0 -1 0 -2 -1 -1 -2 -4 1
-0 1 0 -0 -0 -1 -1 1 -1 -4 -1 1 -2 1 -1 -2 -2 -2 -2 -1 -6 -6
0 -0 -1 -1 -0 0 0 -1 -1 1 2 1 -2 -2 -3 -0 -1 2 2 2 -4 -4
-0 -1 -0 0 1 0 -1 -0 3 -2 -2 -4 1 -2 1 -2 4 4 -0 -3 -3 -2
-0 0 1 1 -0 1 1 0 -0 -0 -2 2 -0 0 1 0 -3 -5 -0 -2 -4 -4
Height
5711 5712 5713 5713 5712 5712 5711 5708 5706 5702 5699 5695 5691 5687 5683 5678 5672 5666 5660 5653 5646 5639
5704 5705 5704 5704 5704 5704 5701 5699 5696 5693 5689 5685 5681 5677 5672 5666 5661 5654 5647 5640 5632 5623
5697 5697 5696 5696 5696 5695 5692 5689 5686 5683 5679 5675 5671 5666 5660 5654 5648 5641 5633 5625 5617 5607
5689 5689 5689 5689 5687 5685 5683 5680 5677 5673 5669 5664 5659 5653 5647 5641 5634 5627 5618 5608 5600 5589
5681 5681 5681 5680 5678 5676 5674 5671 5667 5663 5658 5653 5647 5641 5635 5628 5619 5611 5603 5593 5584 5573
5673 5673 5673 5672 5670 5668 5665 5662 5658 5653 5648 5642 5635 5629 5621 5613 5605 5596 5586 5577 5567 5557
5666 5666 5665 5663 5661 5659 5656 5652 5648 5642 5636 5630 5622 5615 5607 5599 5590 5580 5570 5560 5551 5540
5659 5658 5657 5655 5653 5650 5647 5642 5637 5630 5624 5617 5609 5601 5593 5584 5575 5564 5556 5545 5534 5522
5652 5650 5649 5647 5644 5641 5636 5631 5625 5619 5612 5604 5596 5587 5578 5568 5560 5550 5540 5530 5518 5504
5645 5643 5641 5638 5635 5631 5626 5620 5614 5607 5599 5591 5583 5573 5563 5554 5545 5535 5524 5512 5499 5484
5637 5635 5632 5629 5625 5620 5615 5608 5602 5594 5586 5578 5569 5560 5551 5541 5531 5520 5507 5492 5476 5461
5630 5627 5624 5620 5615 5610 5604 5597 5590 5582 5574 5565 5556 5547 5537 5528 5517 5504 5489 5473 5454 5437
5622 5619 5614 5610 5605 5599 5593 5586 5578 5569 5561 5553 5543 5533 5523 5512 5499 5487 5472 5454 5434 5415
5613 5609 5605 5600 5594 5588 5582 5574 5566 5558 5549 5539 5530 5519 5508 5495 5480 5465 5451 5433 5414 5395